Regional Weather Roundup
Issued by NWS Cleveland, OH

Home | Current Version | Previous Version | Text Only | Print | Product List | Glossary On
Versions: 1 2 3 4 5 6 7 8 9 10 11 12 13 14 15 16 17 18 19 20 21 22 23 24 25 26 27 28 29 30 31 32 33 34 35 36 37 38 39 40 41 42 43 44 45 46 47 48 49 50
000
ASUS41 KCLE 152212
RWRCLE
OHIO REGIONAL WEATHER ROUNDUP
NATIONAL WEATHER SERVICE WILMINGTON, OH
600 PM EDT MON JUL 15 2019

NOTE: "FAIR" INDICATES FEW OR NO CLOUDS BELOW 12,000 FEET WITH NO
SIGNIFICANT WEATHER AND/OR OBSTRUCTIONS TO VISIBILITY.

OHZ001>008-015>018-024>027-034-035-043-044-152300-
   NORTHWEST OHIO

CITY           SKY/WX    TMP DP  RH WIND       PRES   REMARKS
DEFIANCE       FAIR      90  68  48 SW13G20   30.02F HX  94
FINDLAY        FAIR      89  71  55 W13       30.02S HX  95
TOLEDO EXPRESS PTSUNNY   77  71  82 SE6       30.02F
TOLEDO EXEC    FAIR      84  69  60 W7        30.03F
LIMA           FAIR      89  69  51 W12       30.04F HX  93
$$

OHZ009>014-019>023-028>033-038-089-152300-
   NORTHEAST OHIO

CITY           SKY/WX    TMP DP  RH WIND       PRES   REMARKS
CLE-HOPKINS    FAIR      90  63  40 SW7       30.06F HX  91
CLE-LAKEFRONT  FAIR      78  65  63 NE8       30.03F
CUY CO. ARPT   MOSUNNY   86  63  45 CALM      30.05F
LORAIN-ELYRIA  PTSUNNY   90  63  40 S10       30.04F HX  91
ASHTABULA      FAIR      85  60  42 SE7       30.08F
AKRON-CANTON   FAIR      88  65  46 S7        30.08F HX  90
WOOSTER        FAIR      86  68  54 S5        30.08F
MANSFIELD      LGT RAIN  85  70  60 SW14G21   30.08S
YOUNGSTOWN     FAIR      87  59  38 VRB6      30.08F
$$

OHZ042-051>053-060>062-070>072-077>081-152300-
  SOUTHWEST OHIO

CITY           SKY/WX    TMP DP  RH WIND       PRES   REMARKS
CINC-COVINGTON LGT RAIN  72  68  87 NE16      30.14F
CINC-LUNKEN    TSTM      72  70  93 W10       30.15R FOG
HAMILTON       RAIN      73  70  90 S6        30.14R FOG
DAYTON         CLOUDY    78  71  79 S7        30.10S
WRIGHT-PAT AFB LGT RAIN  76  70  83 SW3       30.09F
DAYTON GENERAL FAIR      79  71  76 S16G24    30.12R
WILMINGTON     TSTM      72  63  73 W24G45    30.13R VSB 3/4
$$

OHZ036-037-039>041-045>050-054>059-063>069-073>076-082>088-152300-
  CENTRAL AND SOUTHEAST OHIO

CITY           SKY/WX    TMP DP  RH WIND       PRES   REMARKS
COLUMBUS       PTSUNNY   91  64  40 SW13      30.04F HX  92
OSU AIRPORT    PTSUNNY   89  66  46 SW14      30.06S HX  91
BOLTON FIELD   PTSUNNY   88  70  55 SW12      30.07S HX  92
RICKENBACK AFB FAIR      87  68  53 S8        30.06R HX  90
NEWARK         FAIR      90  72  55 CALM      30.06F HX  97
MARION         FAIR      91  64  40 SW8       30.05F HX  92
LANCASTER      FAIR      86  70  58 SW6       30.07S HX  90
ZANESVILLE     FAIR      88  68  51 CALM      30.07S HX  91
NEW PHILLY     FAIR      87  67  51 SW3       30.08F HX  90
$$




USA.gov is the U.S. government's official web portal to all federal, state and local government web resources and services.